Bodrum Milas, Turkey

12:42 AM +03 on February 25, 2017 (GMT +0300)
Bodrum

Weather History for LTFE - September, 2012

Change the Weather History Date:

Saturday, September 1, 2012

  Actual Average Record
Temperature  
Mean Temperature 77 °F -  
Max Temperature 95 °F - - ()
Min Temperature 59 °F - - ()
Cooling Degree Days 12    
Growing Degree Days 27 (Base 50)    
Moisture  
Dew Point 56 °F    
Average Humidity 53    
Maximum Humidity 88    
Minimum Humidity 18    
Precipitation  
Precipitation 0.00 in - - ()
Sea Level Pressure  
Sea Level Pressure 29.83 in    
Wind  
Wind Speed 5 mph ()    
Max Wind Speed 18 mph    
Max Gust Speed -    
T = Trace of Precipitation, MM = Missing Value Source: Averaged Metar Reports

Daily Weather History Graph

Daily Weather History Graph

Search for Another Location

Airport or City:

Trip Planner

Search our weather history database for the weather conditions in past years. The results will help you decide how hot, cold, wet, or windy it might be!

Date:

Astronomy

Sep. 01, 2012 Rise Set
Actual Time 6:40 AM EEST 7:37 PM EEST
Civil Twilight 6:13 AM EEST 8:04 PM EEST
Nautical Twilight 5:41 AM EEST 8:35 PM EEST
Astronomical Twilight 5:08 AM EEST 9:08 PM EEST
Moon 7:47 PM EEST (9/1) 7:24 AM EEST (9/1)
Length of Visible Light 13h 50m
Length of Day
12h 57m
Full, 99% of the Moon is Illuminated
Sep 1
Full
Sep 8
Last Quarter
Sep 16
New
Sep 22
First Quarter
Sep 30
Full

Hourly Weather History & Observations

Time (EEST) Temp. Heat Index Dew Point Humidity Pressure Visibility Wind Dir Wind Speed Gust Speed Precip Events Conditions
12:20 AM 66.2 °F - 57.2 °F 73% 29.80 in - East 3.5 mph - N/A   Clear
12:50 AM 68.0 °F - 59.0 °F 73% 29.80 in - South 4.6 mph - N/A   Clear
1:20 AM 64.4 °F - 57.2 °F 77% 29.80 in - NNE 4.6 mph - N/A   Clear
1:50 AM 64.4 °F - 57.2 °F 77% 29.80 in - Variable 1.2 mph - N/A   Clear
2:20 AM 66.2 °F - 57.2 °F 73% 29.80 in - SE 3.5 mph - N/A   Clear
2:50 AM 62.6 °F - 55.4 °F 77% 29.80 in - East 4.6 mph - N/A   Clear
3:20 AM 62.6 °F - 55.4 °F 77% 29.80 in - SE 3.5 mph - N/A   Clear
3:50 AM 60.8 °F - 55.4 °F 82% 29.80 in - North 2.3 mph - N/A   Clear
4:20 AM 59.0 °F - 55.4 °F 88% 29.80 in - SE 4.6 mph - N/A   Clear
4:50 AM 62.6 °F - 55.4 °F 77% 29.80 in - Variable 1.2 mph - N/A   Clear
5:20 AM 59.0 °F - 53.6 °F 82% 29.80 in - SE 4.6 mph - N/A   Clear
5:50 AM 59.0 °F - 53.6 °F 82% 29.80 in - ESE 3.5 mph - N/A   Clear
6:20 AM 59.0 °F - 53.6 °F 82% 29.80 in - Variable 2.3 mph - N/A   Clear
7:20 AM 60.8 °F - 53.6 °F 77% 29.83 in - East 3.5 mph - N/A   Clear
7:50 AM 64.4 °F - 55.4 °F 73% 29.83 in - Variable 2.3 mph - N/A   Clear
8:20 AM 71.6 °F - 53.6 °F 53% 29.83 in - Calm Calm - N/A   Clear
8:50 AM 73.4 °F - 55.4 °F 53% 29.83 in - Variable 1.2 mph - N/A   Clear
9:20 AM 77.0 °F - 55.4 °F 47% 29.83 in - Variable 2.3 mph - N/A   Clear
9:50 AM 80.6 °F 80.8 °F 57.2 °F 45% 29.83 in - SW 3.5 mph - N/A   Clear
10:20 AM 84.2 °F 83.5 °F 57.2 °F 40% 29.83 in - NW 4.6 mph - N/A   Clear
10:50 AM 86.0 °F 84.9 °F 57.2 °F 37% 29.83 in - WNW 6.9 mph - N/A   Clear
11:20 AM 87.8 °F 86.5 °F 57.2 °F 35% 29.83 in - WNW 9.2 mph - N/A   Clear
11:50 AM 89.6 °F 87.3 °F 53.6 °F 29% 29.83 in - West 12.7 mph - N/A   Clear
12:20 PM 91.4 °F - 50.0 °F 24% 29.83 in - WNW 15.0 mph - N/A   Clear
12:50 PM 91.4 °F - 51.8 °F 26% 29.83 in - West 15.0 mph - N/A   Clear
1:20 PM 93.2 °F - 50.0 °F 23% 29.83 in - West 12.7 mph - N/A   Clear
1:50 PM 95.0 °F - 44.6 °F 18% 29.83 in - West 12.7 mph - N/A   Clear
2:20 PM 93.2 °F 90.8 °F 53.6 °F 26% 29.80 in - West 16.1 mph - N/A   Clear
2:50 PM 91.4 °F 89.1 °F 53.6 °F 28% 29.80 in - West 18.4 mph - N/A   Clear
3:20 PM 91.4 °F - 51.8 °F 26% 29.80 in - WSW 18.4 mph - N/A   Clear
3:50 PM 91.4 °F 89.1 °F 53.6 °F 28% 29.80 in - WSW 15.0 mph - N/A   Clear
4:20 PM 91.4 °F 89.1 °F 53.6 °F 28% 29.80 in - WSW 17.3 mph - N/A   Clear
4:50 PM 95.0 °F - 51.8 °F 23% 29.80 in - WSW 11.5 mph - N/A   Clear
5:20 PM 91.4 °F 89.9 °F 57.2 °F 31% 29.83 in - West 8.1 mph - N/A   Clear
5:50 PM 89.6 °F 87.7 °F 55.4 °F 31% 29.83 in - West 10.4 mph - N/A   Clear
6:20 PM 89.6 °F 89.5 °F 60.8 °F 38% 29.83 in - SW 5.8 mph - N/A   Clear
6:50 PM 86.0 °F 86.6 °F 62.6 °F 45% 29.83 in - SSW 10.4 mph - N/A   Clear
7:20 PM 84.2 °F 85.0 °F 62.6 °F 48% 29.83 in - SSW 10.4 mph - N/A   Clear
7:50 PM 82.4 °F 83.4 °F 62.6 °F 51% 29.83 in - SSW 12.7 mph - N/A   Clear
8:20 PM 82.4 °F 82.9 °F 60.8 °F 48% 29.86 in - South 6.9 mph - N/A   Clear
8:50 PM 80.6 °F 81.5 °F 60.8 °F 51% 29.86 in - SSW 9.2 mph - N/A   Clear
9:20 PM 80.6 °F 81.5 °F 60.8 °F 51% 29.86 in - SSE 6.9 mph - N/A   Clear
9:50 PM 77.0 °F - 60.8 °F 57% 29.86 in - Variable 1.2 mph - N/A   Clear
10:20 PM 73.4 °F - 60.8 °F 65% 29.89 in - Calm Calm - N/A   Clear
10:50 PM 73.4 °F - 60.8 °F 65% 29.89 in - North 1.2 mph - N/A   Clear
11:20 PM 71.6 °F - 60.8 °F 69% 29.89 in - Calm Calm - N/A   Clear
11:50 PM 71.6 °F - 60.8 °F 69% 29.89 in - SSE 3.5 mph - N/A   Clear